Wind_Speed
14 15 16 16 16 16 17 18 19 19 19 19 20 20 20 19 19 19 19 19 19 19 19 19 18 17 16 15 15 16 16 16 17 18 19 19 19 18 18 18 18 18 17 17 19 21 23 25 27 27 26 25 25 26 28 29 30 30 29 29 28 29 30 30 30 30 29 29 27
13 14 15 16 16 16 16 16 17 17 18 18 18 19 19 18 18 18 18 18 18 18 18 18 17 17 16 15 15 15 15 16 16 18 18 18 17 17 17 17 17 17 18 20 22 25 26 27 26 25 24 24 24 25 26 27 28 28 28 27 27 27 27 28 29 30 30 29 28
10 12 14 15 16 16 16 16 16 17 17 18 18 18 18 18 18 18 18 18 18 18 18 17 17 17 16 15 15 15 15 15 16 16 17 17 17 18 17 17 16 18 21 24 25 26 27 27 26 24 23 22 23 23 24 25 26 26 26 26 25 24 24 25 27 28 29 29 28
8 10 12 14 16 17 18 17 17 17 17 18 18 18 18 18 18 18 18 18 18 18 18 17 16 16 15 15 15 14 14 15 14 14 14 16 18 18 17 18 19 21 23 25 26 26 26 26 25 23 22 21 22 22 23 24 25 24 24 25 24 23 23 23 24 26 27 28 28
7 8 9 11 14 16 17 18 18 18 17 17 17 17 18 18 18 17 17 17 17 17 17 16 15 15 15 14 14 13 12 13 12 12 13 15 17 18 19 20 22 23 25 25 25 25 25 24 24 22 21 21 21 22 23 24 23 23 23 23 24 23 22 22 22 24 25 26 27
7 7 8 9 11 13 15 17 18 18 18 17 17 17 17 17 17 17 16 16 17 17 16 16 15 14 12 11 11 10 10 11 10 11 12 14 17 19 21 22 24 25 25 25 24 23 23 23 23 22 21 20 21 22 23 23 23 22 22 22 23 23 22 22 22 23 24 25 26
7 8 8 9 10 11 13 15 17 18 18 18 18 18 17 17 17 17 17 16 16 15 14 12 11 10 9 9 9 9 9 9 10 10 12 15 17 19 21 22 24 24 24 23 23 22 22 22 22 21 21 21 21 22 23 23 22 22 21 21 22 22 22 22 22 23 23 23 24
8 8 8 9 9 10 12 13 15 16 17 18 18 18 18 18 17 17 16 16 15 13 10 7 7 7 7 8 8 8 8 9 10 12 13 15 17 18 20 22 22 22 22 21 21 20 21 21 21 21 21 21 21 21 22 22 21 21 21 21 21 21 22 22 22 22 22 22 22
8 8 8 8 9 9 11 12 13 14 16 17 18 18 18 17 17 16 15 14 13 10 7 6 7 7 7 7 8 8 9 9 10 12 13 15 16 18 19 20 20 20 20 19 19 19 20 20 21 21 21 21 21 21 21 20 19 19 20 21 21 21 21 21 21 21 21 21 20
9 9 9 9 9 9 9 10 12 13 14 16 16 17 17 16 15 13 11 9 7 6 6 7 7 7 7 7 8 8 9 9 10 12 14 16 17 17 18 18 17 17 17 17 18 19 19 20 20 19 19 20 20 20 20 19 19 19 20 21 20 20 19 19 19 19 19 20 19
10 10 9 9 9 8 8 9 10 11 12 13 14 14 14 12 9 7 5 3 4 6 7 7 7 7 7 7 7 8 9 10 12 13 14 15 15 15 15 14 14 14 15 15 16 17 18 18 18 18 18 18 18 19 19 19 19 20 20 20 20 19 18 18 18 18 19 19 19
10 10 9 9 9 8 8 8 8 9 10 11 11 9 6 1 1 2 4 6 6 7 7 6 7 7 6 6 6 8 9 10 12 12 12 12 12 11 11 11 11 11 12 13 14 15 15 16 17 17 17 17 17 18 18 18 19 20 20 19 19 18 18 17 17 18 18 19 18
9 9 9 9 8 8 7 7 7 8 8 6 3 2 3 4 4 5 6 7 7 6 6 5 5 6 6 6 7 8 8 9 9 9 9 8 8 7 7 7 8 9 10 11 12 12 13 14 15 16 16 17 17 17 17 18 19 20 20 19 18 18 18 17 18 18 18 18 18
9 9 8 8 7 7 7 7 6 5 2 3 5 4 4 3 3 3 4 5 5 4 3 4 4 5 6 7 8 8 8 7 7 6 6 6 7 7 7 8 9 9 9 9 10 10 10 11 12 14 15 16 17 16 16 17 18 19 19 19 19 18 18 18 18 18 18 18 18
8 8 7 7 6 6 6 5 2 2 5 6 5 4 3 3 2 2 2 3 4 4 4 4 5 7 8 8 7 7 6 6 6 6 6 6 7 7 8 9 9 9 9 9 9 9 8 8 9 11 13 15 16 16 16 16 17 18 19 19 19 19 19 18 18 18 19 19 19
7 6 6 5 5 5 3 2 5 6 6 6 5 4 3 3 2 2 3 4 5 6 6 7 7 7 7 7 6 5 5 5 5 5 6 7 7 8 9 9 9 9 10 10 9 8 8 8 8 9 10 12 14 15 15 15 15 16 16 17 18 19 19 19 19 19 19 20 20
6 6 5 4 3 1 3 6 7 7 7 7 6 5 5 4 4 4 4 6 7 8 8 8 8 8 7 7 6 5 5 5 6 6 7 7 8 9 9 10 10 10 10 10 9 9 8 8 8 8 8 9 11 13 14 14 14 14 15 15 16 17 18 19 19 19 19 20 20
6 5 4 4 3 5 8 8 9 9 8 8 8 8 7 7 7 8 8 8 8 9 10 9 9 9 9 8 8 8 7 7 7 8 8 8 9 9 10 10 10 10 10 10 9 9 8 8 8 8 8 9 10 11 13 14 14 14 14 14 15 16 17 18 18 19 19 19 19
5 5 6 6 7 8 9 9 10 10 9 9 9 9 9 9 10 10 10 10 10 10 11 11 10 10 10 9 9 9 8 8 8 8 8 8 9 9 10 10 10 10 9 9 9 9 9 8 8 9 9 10 10 11 12 13 14 14 14 14 15 15 16 17 18 18 18 18 19
7 7 8 9 9 9 10 10 10 10 10 10 10 11 11 11 11 11 12 11 11 10 10 10 10 10 9 9 9 9 8 8 8 8 8 8 9 9 9 10 9 9 8 8 8 8 8 9 9 10 10 11 11 12 12 13 14 14 14 14 14 15 16 16 17 17 17 18 18
9 9 9 10 10 10 11 11 11 11 11 11 11 12 12 12 11 11 11 11 10 10 10 10 10 9 9 8 9 9 9 8 8 9 9 9 9 9 9 9 9 9 8 8 8 8 9 10 10 11 11 11 12 12 13 14 15 15 15 15 15 16 16 17 16 17 17 17 17
10 10 10 10 11 11 11 11 11 11 12 12 12 12 12 12 11 11 11 10 10 10 10 10 10 9 9 9 9 9 9 9 9 9 9 9 9 9 8 8 8 9 9 9 9 9 10 11 12 12 12 12 12 13 14 14 15 15 15 15 16 17 17 17 16 16 16 16 16
10 10 11 11 11 11 11 11 11 12 12 13 12 12 12 11 11 10 10 10 11 11 11 10 10 10 9 9 9 9 10 10 10 10 9 9 9 8 8 8 9 10 10 11 11 11 12 12 13 13 12 12 13 13 13 14 14 14 15 16 17 17 17 17 16 15 15 15 15
11 11 11 11 11 11 12 12 12 12 13 12 12 12 12 11 11 11 11 11 11 11 11 11 10 10 10 10 10 10 10 10 10 10 10 9 9 9 9 10 10 11 12 13 13 13 12 12 13 13 13 13 13 13 13 13 13 14 14 15 16 16 17 16 16 15 15 15 15
12 12 12 12 12 12 12 12 12 12 12 11 11 11 11 11 11 11 11 11 11 11 11 10 10 10 10 10 10 10 10 10 11 11 11 11 10 10 11 11 12 12 13 14 14 13 12 12 12 13 14 14 14 14 14 14 14 14 14 14 15 16 16 15 15 15 15 14 14
12 13 13 12 12 12 12 12 12 11 11 11 11 11 10 10 10 10 10 11 11 10 10 10 10 10 10 11 11 11 11 11 11 11 12 13 12 12 12 12 12 13 13 14 13 13 11 11 12 13 14 15 15 16 16 15 15 14 14 14 14 15 15 15 15 15 14 14 13
13 13 13 12 12 12 12 11 11 10 10 10 10 10 10 9 9 10 11 11 11 11 11 11 11 11 11 11 11 12 12 12 12 12 12 13 13 13 13 12 12 12 13 13 13 13 12 12 12 13 14 15 16 16 16 16 15 14 14 13 14 14 15 15 15 14 13 12 11
13 12 12 12 12 12 11 11 10 10 10 10 10 10 9 9 10 11 11 11 11 11 12 12 12 12 12 12 12 13 13 13 13 13 12 13 13 13 13 12 12 12 12 12 13 13 13 12 12 13 14 15 15 15 15 15 14 14 13 13 13 13 14 14 14 13 12 11 9
12 11 11 11 11 11 10 10 10 10 10 10 10 10 10 10 11 11 11 11 11 12 12 12 12 12 12 13 13 13 13 13 13 12 12 12 12 12 12 12 12 12 12 11 12 13 13 12 12 13 14 15 15 15 14 14 14 13 13 13 13 13 13 13 12 11 10 8 7
11 11 11 12 12 11 11 11 10 10 10 10 10 10 11 11 11 11 11 11 11 12 12 12 12 13 13 14 13 14 14 13 12 12 12 12 12 12 12 12 12 12 12 12 12 12 13 13 13 13 13 14 15 15 15 14 14 14 13 13 12 12 11 10 9 8 7 6 6
11 11 12 12 12 12 11 11 10 10 10 10 10 10 10 11 11 11 11 11 12 12 12 13 13 14 14 13 14 14 14 13 13 12 12 13 13 13 13 13 13 12 11 11 11 12 12 13 13 13 13 14 15 15 15 15 14 14 13 12 11 10 9 8 8 7 7 6 6
12 12 12 12 12 12 11 11 11 10 10 10 10 10 11 11 11 11 11 12 12 13 13 14 14 14 14 14 14 14 14 14 14 13 13 14 14 14 14 13 13 12 12 12 12 12 13 13 13 13 13 14 15 15 15 14 13 13 11 10 9 9 8 8 8 8 7 7 6
12 12 12 12 12 11 11 11 11 11 11 10 11 11 11 11 11 11 12 12 12 13 14 14 14 14 14 15 15 15 15 14 14 14 14 15 15 15 15 14 13 13 12 12 13 13 13 12 12 12 13 14 14 14 13 13 12 11 11 10 9 9 8 8 8 8 8 7 7
12 12 12 12 12 11 11 11 11 11 11 11 11 11 11 11 12 12 12 12 13 13 14 14 15 15 15 15 15 15 15 15 15 15 16 16 16 15 15 15 15 14 14 14 13 13 12 12 12 12 12 13 13 12 12 11 11 11 10 10 10 9 9 9 9 9 8 7 6
12 12 12 12 11 11 11 11 11 11 12 12 11 11 12 12 12 12 13 13 14 15 15 15 15 15 15 15 16 16 16 16 16 17 16 16 16 17 17 17 17 16 15 14 14 13 12 11 11 11 11 11 11 11 11 11 11 11 11 11 11 10 10 10 9 8 7 6 4
12 11 12 12 11 11 11 11 11 12 12 12 12 12 12 13 13 13 13 14 15 16 16 16 16 16 15 15 16 16 17 17 17 17 17 17 18 19 19 19 17 16 14 13 12 11 10 9 9 9 10 10 11 11 11 11 12 12 11 11 11 10 10 9 8 7 6 4 3
11 11 11 12 12 12 12 12 12 13 13 13 13 13 13 13 13 13 13 14 15 16 17 16 16 16 16 16 16 17 17 17 18 18 19 19 19 20 20 19 17 16 14 12 11 10 9 8 8 8 9 10 11 11 12 12 12 12 11 11 10 9 9 8 7 6 4 3 3
11 11 12 12 12 12 12 13 13 13 13 13 13 13 13 14 14 14 14 15 16 17 17 17 17 17 17 17 17 17 17 17 18 19 20 20 20 20 19 18 17 14 12 10 9 8 8 8 8 8 9 10 11 12 12 12 12 11 10 9 8 8 7 7 6 5 3 2 2
11 11 12 13 13 13 13 13 13 13 13 13 13 13 14 14 14 15 15 15 16 17 18 18 17 17 17 18 18 18 18 19 19 20 20 20 20 19 18 17 15 13 11 10 9 9 9 9 9 9 9 10 11 11 11 11 11 10 9 8 8 7 7 6 5 4 2 1 1
12 12 13 13 13 13 13 13 13 13 13 14 14 14 14 15 16 16 16 17 17 18 18 18 18 18 19 19 20 20 20 20 20 20 20 20 18 17 16 15 14 13 11 11 10 10 10 10 10 9 10 10 11 11 11 10 9 8 7 7 6 5 5 4 3 2 2 2 3
13 13 13 13 13 13 13 13 13 14 14 14 14 15 15 16 16 17 17 18 18 18 19 19 19 20 20 21 21 22 22 21 20 20 19 18 16 14 13 13 13 13 12 12 11 11 11 11 11 10 10 11 11 11 10 9 7 6 5 5 4 4 3 2 2 1 1 1 2
Wind_Direction
247 245 243 243 242 241 240 239 238 238 239 240 240 240 237 234 233 233 233 234 235 238 240 240 238 236 234 231 229 230 230 230 229 232 235 234 230 225 222 222 223 224 222 220 219 220 222 224 225 226 227 226 226 225 223 221 218 216 216 216 215 215 215 216 219 222 222 219 216
249 246 245 244 244 243 243 241 239 238 237 237 238 239 238 237 234 233 234 235 236 238 240 240 238 237 234 232 230 230 230 230 230 233 235 231 227 223 221 221 221 220 220 222 223 224 225 226 226 226 227 228 229 227 226 224 221 219 219 219 218 217 217 218 220 222 221 217 212
255 250 247 245 244 243 242 242 240 238 236 236 236 237 238 238 238 237 236 236 236 237 237 237 237 235 233 232 230 229 228 228 229 231 230 226 221 219 219 219 220 223 226 229 229 229 229 228 227 226 228 231 233 231 228 227 225 222 221 220 220 218 217 218 219 220 219 214 208
264 256 251 247 244 242 242 242 241 240 238 237 236 236 237 238 239 239 238 237 237 237 236 234 232 232 232 232 231 228 226 225 223 223 222 221 219 218 218 219 224 228 231 232 232 232 231 230 227 226 228 233 235 233 231 229 227 224 221 221 222 220 218 216 215 212 209 206 203
278 267 258 252 248 245 244 244 244 243 241 240 238 236 236 237 238 238 238 238 238 237 235 231 229 231 234 232 228 223 219 216 214 212 214 218 219 220 221 224 229 232 234 234 233 231 230 228 225 225 229 235 237 235 233 232 229 225 222 221 221 221 219 215 211 206 202 199 196
294 287 275 265 257 252 249 246 246 245 244 243 241 238 236 236 235 236 236 237 238 238 237 234 231 229 227 222 215 208 205 204 203 206 212 218 224 227 230 234 235 235 235 234 231 229 227 224 223 224 229 234 235 234 233 232 230 226 221 218 218 218 217 214 209 204 199 195 192
296 296 290 282 272 263 256 251 248 247 246 245 244 242 240 237 236 235 235 236 237 238 238 234 224 215 207 199 193 192 194 196 197 201 212 224 231 235 237 237 237 235 233 231 229 226 223 221 221 223 228 233 232 231 231 230 228 223 217 214 214 214 213 211 207 202 197 193 191
291 292 291 289 283 275 266 259 254 250 248 246 246 245 243 242 240 238 238 237 236 234 228 210 192 184 181 180 180 183 188 194 200 209 221 232 239 242 241 240 237 234 231 229 226 223 221 220 221 224 228 230 229 228 227 226 222 217 212 209 210 210 208 206 203 199 194 190 187
289 288 289 289 286 281 274 267 261 255 250 248 247 247 246 246 246 244 243 241 238 228 207 178 169 168 169 172 176 182 190 201 211 222 233 241 244 243 242 239 236 232 230 227 225 223 221 220 221 224 227 228 225 223 221 219 214 209 206 206 207 206 204 201 198 194 189 184 179
290 290 290 290 288 284 279 272 265 259 254 251 250 249 249 249 251 250 248 242 224 193 167 156 158 161 164 172 184 196 208 220 230 239 244 246 244 241 239 237 235 232 230 227 224 222 220 219 219 219 221 222 220 216 213 210 206 203 202 203 203 200 197 195 191 186 181 176 171
291 291 290 290 289 286 281 274 267 261 256 253 250 249 250 253 255 251 235 193 151 134 130 136 146 154 165 182 200 218 231 239 244 246 245 242 240 238 236 236 235 234 230 226 221 218 216 216 215 214 213 213 210 206 202 200 198 198 198 198 196 191 187 184 181 176 172 168 164
292 291 290 288 287 285 280 273 266 260 253 248 247 243 240 268 80 116 133 135 129 126 130 139 150 162 176 196 218 234 241 243 242 240 237 234 233 233 233 232 231 228 224 219 215 212 212 214 213 210 207 204 201 197 194 192 191 192 192 190 186 181 176 172 170 167 165 163 160
293 291 289 287 285 282 277 268 260 253 245 237 223 164 120 86 91 112 129 134 133 138 147 160 167 177 190 207 220 227 229 229 229 227 223 219 217 216 214 212 209 207 206 205 204 206 209 212 212 208 202 197 192 190 188 188 188 188 187 182 176 171 167 164 163 162 161 159 156
296 292 290 288 285 280 271 259 249 239 211 108 91 103 117 108 121 139 147 149 149 147 155 175 185 194 202 207 210 210 209 209 208 204 200 198 196 191 187 184 184 185 185 186 190 196 201 205 206 202 196 187 181 178 179 183 185 185 182 176 171 166 162 161 160 160 158 156 154
300 298 295 292 284 274 262 247 214 126 97 91 94 107 123 128 144 162 173 179 183 183 183 187 187 191 195 194 191 191 191 191 191 188 184 183 182 178 173 171 171 171 172 173 177 182 187 190 191 189 184 176 168 165 167 173 175 174 172 168 165 162 160 159 159 158 157 156 153
308 307 304 297 286 271 252 154 98 93 93 93 96 102 110 126 148 177 188 187 185 181 176 171 168 167 168 168 169 169 169 171 171 170 169 168 169 168 166 164 163 166 168 169 170 171 173 174 174 174 170 165 158 157 162 170 172 170 167 164 162 161 159 158 158 157 156 156 153
318 317 312 305 301 335 74 91 91 93 94 91 93 95 101 116 130 142 152 156 157 152 146 143 143 142 139 137 138 138 139 143 145 148 151 155 159 162 163 164 166 169 171 171 169 166 164 162 162 161 158 154 150 152 158 164 167 166 165 164 162 159 158 158 157 157 157 157 156
335 339 343 348 30 65 74 83 87 90 91 90 92 94 101 113 117 120 123 128 130 129 125 123 123 125 125 124 125 126 128 132 135 139 145 150 158 163 167 170 172 174 176 176 171 165 161 157 155 153 150 145 142 145 148 152 151 155 157 155 157 156 155 155 155 156 158 159 160
6 18 30 39 59 72 79 84 86 88 90 93 97 100 104 111 113 112 112 114 120 123 122 121 121 125 128 128 128 128 129 132 136 140 146 153 160 166 170 173 175 178 181 179 175 169 164 160 157 154 150 145 141 141 143 145 139 143 150 148 151 152 151 150 152 155 159 162 164
41 50 56 61 69 76 82 86 89 92 94 97 100 102 105 110 111 111 111 114 120 124 125 125 126 128 130 132 131 130 131 135 137 141 146 152 157 163 168 172 175 178 179 178 174 170 167 162 160 157 154 150 146 144 143 142 137 137 141 145 147 147 146 146 149 154 160 164 167
59 64 68 74 77 81 84 87 91 96 99 100 101 102 104 108 109 111 113 117 120 122 123 124 126 127 129 132 132 132 134 137 138 140 143 148 152 157 164 169 171 172 173 171 168 165 163 160 157 156 154 152 149 146 143 140 137 136 138 142 144 144 144 144 148 155 161 165 168
70 73 76 79 81 84 88 90 94 99 102 103 101 101 102 104 106 110 115 119 120 120 120 121 123 127 131 135 138 139 140 142 141 140 142 144 146 151 158 164 167 167 164 161 158 157 156 154 152 152 151 151 148 147 144 141 139 139 141 142 142 142 142 144 149 155 161 165 168
77 78 80 82 84 87 90 92 96 99 100 100 98 99 100 102 105 110 114 116 117 118 119 120 123 127 132 138 143 145 145 143 141 140 140 140 141 144 148 152 154 154 153 151 150 150 149 147 146 148 149 149 147 145 144 143 143 144 144 145 144 143 142 143 148 153 158 162 164
79 79 79 82 83 85 87 91 92 92 92 92 94 96 97 99 102 105 108 111 114 117 120 122 125 129 135 139 143 145 144 142 138 136 135 135 136 137 138 141 142 144 145 146 148 148 148 146 145 146 148 148 146 145 144 145 146 148 149 148 146 144 142 142 146 149 153 157 160
79 78 77 78 79 80 82 83 84 84 85 87 89 91 93 95 98 102 106 108 112 115 119 122 126 131 135 138 140 141 140 138 136 133 132 132 133 134 135 136 137 140 142 143 145 147 148 149 148 148 148 147 146 146 145 146 149 151 152 150 147 143 141 141 143 147 151 155 159
78 77 76 75 75 75 75 77 78 81 84 87 90 92 93 96 100 104 107 110 113 115 119 122 126 129 132 134 136 136 134 132 131 131 131 132 133 134 134 135 136 139 141 141 140 140 142 147 151 151 149 148 147 146 146 146 150 152 152 150 147 144 141 141 142 146 150 154 157
76 75 74 74 74 73 74 75 80 83 85 88 90 92 95 100 104 106 108 111 114 117 119 121 123 125 127 129 130 129 128 126 126 127 128 130 131 132 133 134 136 137 138 136 133 132 135 143 149 151 150 148 147 146 145 145 148 150 149 146 145 144 143 142 142 144 146 149 153
74 75 76 77 76 75 77 80 84 85 86 88 90 95 99 103 105 107 109 112 115 117 117 118 120 121 122 123 123 123 122 121 120 121 123 126 128 130 131 132 134 134 133 130 127 128 132 140 146 149 149 147 146 144 143 142 143 144 144 142 142 142 142 142 142 142 143 146 151
75 77 79 80 81 82 84 87 88 88 89 90 94 98 101 103 105 107 109 112 114 114 114 114 117 118 117 117 117 116 115 114 115 117 119 121 122 124 125 127 128 128 128 126 124 125 130 136 142 146 148 147 144 141 139 139 139 140 140 140 140 141 140 139 139 139 141 144 150
76 79 80 82 85 86 86 86 87 88 90 92 94 97 99 102 104 105 107 108 109 110 111 113 112 111 111 111 110 109 108 109 111 113 115 115 116 116 117 119 121 123 123 122 122 124 127 132 137 141 144 146 144 142 141 140 140 140 139 138 138 138 136 134 134 134 137 141 147
76 79 82 83 84 84 84 85 86 87 89 91 93 95 96 98 99 101 103 104 105 106 107 108 106 105 104 103 103 103 103 105 106 108 109 110 110 111 112 115 117 119 120 122 123 126 128 130 134 141 147 150 149 147 144 143 141 139 136 134 132 131 130 128 127 127 129 132 133
76 79 81 82 82 83 85 88 90 91 93 94 95 96 96 96 96 97 99 100 101 101 101 101 100 99 98 97 97 99 100 100 101 102 104 106 107 109 110 112 114 116 119 122 124 125 127 130 136 144 150 153 150 146 143 140 137 133 129 126 124 123 122 122 121 120 119 117 113
76 79 81 82 83 85 88 90 92 94 94 95 96 96 95 95 95 94 94 95 95 95 95 95 94 94 94 95 96 96 97 98 99 101 103 105 107 108 108 109 111 114 118 121 122 122 123 128 136 144 148 148 144 140 137 134 129 125 122 119 117 117 117 116 115 113 109 104 98
77 80 81 83 84 86 88 91 93 94 95 94 94 93 94 94 93 91 90 90 91 92 92 92 92 93 94 96 97 98 98 99 101 103 105 106 107 107 106 106 108 110 112 114 115 115 118 124 133 139 141 139 134 130 127 125 122 119 117 115 113 112 111 110 109 106 103 99 95
78 80 82 83 84 86 89 90 93 95 94 92 90 90 90 90 89 89 89 90 92 92 92 93 94 95 96 97 99 100 101 103 105 106 107 107 106 105 102 101 103 106 107 108 109 111 116 122 129 132 132 129 125 122 120 118 116 114 113 112 110 108 107 107 106 104 101 98 94
79 82 84 85 86 87 89 90 91 91 90 88 87 87 86 85 85 86 89 92 92 92 92 93 94 95 97 98 100 102 104 106 108 109 108 107 104 101 99 98 100 101 102 104 106 109 113 118 122 124 123 122 120 118 117 115 112 111 109 108 106 105 104 105 105 105 104 102 102
81 85 88 88 86 86 87 89 88 87 85 85 86 86 85 85 85 87 90 92 92 92 93 94 95 97 98 100 102 105 107 108 108 107 106 104 102 100 98 97 98 97 97 99 102 105 109 113 115 117 119 119 118 117 115 112 110 108 107 105 104 105 107 109 110 111 115 124 138
79 84 87 88 86 86 87 87 86 85 85 85 85 86 86 87 88 89 91 93 94 95 96 98 99 101 102 104 105 106 106 106 105 104 103 102 102 101 99 97 96 96 96 97 99 101 104 107 110 114 116 117 116 114 112 110 109 108 108 108 110 113 115 117 116 116 120 133 156
77 81 84 86 87 87 87 86 86 86 86 87 87 87 88 90 90 92 93 94 96 98 100 102 103 105 106 106 105 103 101 102 104 104 104 104 104 105 103 100 98 97 97 96 98 99 101 103 106 109 111 112 112 111 109 108 109 110 112 115 117 118 117 116 112 107 95 53 21
77 80 82 84 86 87 88 87 88 88 89 90 90 90 91 92 94 95 97 98 99 101 102 104 105 107 107 106 103 101 100 102 105 107 108 108 109 109 106 103 101 99 99 98 98 98 99 99 100 101 103 105 107 107 108 108 110 113 115 117 118 117 116 111 104 92 65 23 5
79 81 83 84 86 88 88 88 89 91 92 93 93 94 95 96 98 99 101 102 103 104 105 106 108 110 110 109 107 106 106 106 108 110 112 112 111 107 104 102 103 103 102 100 98 96 94 92 91 92 94 97 101 103 105 107 111 115 119 120 120 120 120 114 100 85 61 28 3
Height
753 753 754 754 754 753 753 753 754 754 754 754 755 755 755 756 756 757 757 758 758 759 759 760 761 761 762 762 762 763 764 764 765 766 767 767 768 768 769 770 770 771 771 772 772 772 771 771 771 772 772 773 775 776 777 778 779 779 779 779 779 779 779 779 780 780 781 782 784
752 752 753 753 753 753 752 752 752 753 753 753 753 754 754 754 755 755 756 757 757 757 758 759 759 760 760 761 761 762 762 763 763 764 765 766 767 767 768 768 769 769 770 770 769 769 769 770 770 771 772 773 774 775 777 777 778 779 780 780 780 780 780 780 779 779 779 780 781
752 752 752 752 752 752 752 752 751 752 752 752 752 752 753 753 753 754 754 755 756 756 757 757 758 758 759 759 760 760 761 762 762 763 764 764 765 766 767 767 768 768 768 768 768 768 768 769 769 770 771 772 773 775 777 777 778 779 780 780 781 781 781 781 780 779 779 779 780
751 751 751 751 751 751 751 751 750 750 751 751 751 752 752 752 752 752 753 754 754 755 755 756 756 757 758 758 759 759 760 760 761 762 762 762 763 764 765 766 766 766 766 767 767 767 767 768 768 769 770 771 772 774 775 776 777 778 779 780 780 781 781 781 781 779 778 778 779
750 750 750 750 750 750 750 750 750 749 749 750 750 750 750 751 751 752 752 752 753 753 754 754 755 756 757 757 757 758 758 759 760 761 761 761 762 763 764 764 764 765 765 765 766 766 766 767 767 768 768 769 771 773 774 775 776 777 778 779 780 780 781 781 781 780 779 778 779
750 750 749 749 749 749 749 749 749 749 749 749 749 749 749 749 750 750 751 751 752 752 752 753 754 755 756 756 757 757 758 758 759 760 760 761 761 762 763 763 764 764 764 764 764 765 765 766 767 766 766 767 769 771 773 774 774 775 777 777 778 779 780 780 780 780 779 779 779
749 749 749 748 748 748 748 748 748 748 748 748 747 747 747 748 748 749 749 750 751 751 752 752 753 754 754 755 756 756 757 758 759 759 759 760 761 762 762 763 763 763 763 763 763 764 764 765 766 765 765 765 767 769 771 772 773 774 775 776 777 777 778 779 779 779 779 779 779
748 748 748 748 747 747 747 747 747 747 747 747 747 746 747 747 747 747 748 749 749 750 751 752 752 753 753 754 755 756 757 757 758 758 758 759 760 761 762 762 762 762 762 762 763 763 764 765 765 764 763 763 765 767 769 771 772 772 773 775 775 776 777 778 778 779 779 779 779
747 747 747 747 747 746 746 746 746 746 746 746 746 746 746 746 746 746 747 747 747 748 750 751 751 752 753 754 754 755 756 756 757 758 758 759 760 760 761 761 761 762 762 762 763 763 764 764 764 763 762 762 763 765 768 769 770 771 772 773 774 775 776 777 777 778 778 778 779
747 747 746 746 746 745 745 745 745 745 745 745 745 745 745 745 745 746 746 746 747 748 749 750 751 752 752 753 754 754 755 756 757 757 758 758 759 759 760 760 761 761 762 762 763 763 764 764 763 763 762 761 762 764 766 768 769 770 771 772 773 774 775 776 777 777 777 778 778
746 746 745 745 745 744 744 744 744 744 744 744 744 744 745 745 745 745 745 746 747 747 748 749 750 751 752 752 753 754 755 756 757 757 757 758 758 759 759 760 761 761 762 763 763 764 764 764 763 762 762 761 762 763 765 766 767 768 770 771 772 773 774 775 776 777 777 778 778
745 745 744 744 744 743 743 743 743 743 743 743 743 744 744 744 744 744 745 746 746 747 747 748 749 751 752 752 753 754 755 756 756 757 757 757 758 759 759 760 761 762 762 763 764 764 764 764 763 763 762 762 762 763 764 765 766 767 769 770 771 772 773 775 776 777 777 778 778
744 744 743 743 743 743 742 742 742 742 742 743 743 743 743 743 744 744 745 745 746 746 747 748 749 750 752 752 753 754 755 755 756 757 757 758 758 759 760 761 762 762 763 764 764 765 765 765 764 763 762 762 762 763 764 765 766 767 769 770 771 772 773 775 776 777 777 778 778
743 743 742 742 742 742 742 742 742 742 742 742 742 742 743 743 744 744 745 745 746 747 747 748 749 750 751 752 753 754 754 755 756 757 757 758 759 759 760 761 762 762 763 764 764 765 765 766 766 765 764 763 763 763 764 765 766 767 768 769 770 771 772 774 775 776 777 777 778
743 742 742 742 742 741 741 741 741 741 741 742 742 742 743 744 744 745 745 746 747 747 748 749 750 751 752 752 753 754 754 755 756 757 757 758 759 760 761 762 762 763 763 764 764 765 766 767 767 767 767 765 763 763 764 766 768 769 769 769 770 771 772 773 774 776 776 777 778
742 742 742 742 741 741 741 741 741 741 742 742 743 743 744 744 745 745 746 746 747 747 748 749 750 751 752 752 753 754 755 755 756 757 757 758 759 760 761 762 763 763 763 764 764 765 766 767 768 769 769 767 765 763 764 767 770 771 771 771 771 771 771 772 773 775 776 777 778
742 742 742 741 741 741 741 741 742 742 743 743 744 744 744 745 745 746 746 747 747 748 749 749 750 751 752 753 754 754 755 756 757 757 758 758 759 760 761 762 763 763 764 764 765 765 766 767 768 769 770 769 767 766 766 768 771 772 772 773 772 772 772 772 773 774 776 777 779
742 742 742 742 742 742 742 742 743 743 744 744 745 745 746 746 746 747 747 747 748 749 749 750 751 752 753 753 754 755 756 756 757 757 758 759 759 760 762 762 763 764 764 765 765 766 767 767 768 769 770 770 770 770 769 770 771 772 773 774 774 773 772 773 774 775 777 778 779
742 742 743 743 743 743 743 744 744 744 745 745 746 746 746 747 747 747 748 748 749 749 750 751 752 752 753 754 754 755 756 757 757 758 758 759 760 761 762 763 764 765 765 766 766 766 767 767 769 770 770 771 772 773 772 772 772 773 775 775 775 775 774 774 775 776 778 779 780
744 744 744 744 744 745 745 745 746 746 746 746 747 747 747 747 748 748 748 749 749 750 750 751 752 752 753 754 755 756 757 757 758 758 759 760 760 761 762 763 764 765 766 767 767 767 767 768 769 770 771 772 773 774 774 773 773 774 776 776 777 776 776 776 776 777 779 780 781
745 745 745 746 746 746 746 747 747 747 747 747 747 748 748 748 749 749 749 750 750 751 751 752 752 753 754 755 755 756 757 758 758 759 759 760 761 762 762 763 764 766 767 767 768 768 768 768 769 770 772 772 773 774 774 774 775 775 776 777 777 777 777 777 777 778 780 781 782
746 746 747 747 747 747 747 747 747 747 747 748 748 749 749 749 750 750 750 751 751 751 752 752 753 754 754 755 756 757 757 758 759 759 760 760 761 762 763 764 765 766 767 767 768 769 769 769 769 770 772 774 775 775 775 775 776 777 778 778 778 778 777 777 778 779 781 782 783
747 747 747 747 748 748 748 748 748 748 749 749 750 750 750 751 751 751 752 752 752 752 752 753 754 754 755 755 756 757 757 758 759 759 760 761 762 762 763 764 766 767 767 767 768 769 770 770 770 770 772 774 775 776 776 777 777 778 779 780 779 778 778 778 779 780 782 783 785
748 748 748 749 749 749 749 749 750 750 750 751 751 752 752 752 752 752 752 752 753 753 753 753 754 755 755 756 757 757 757 758 758 759 760 761 762 763 764 766 767 767 768 768 768 769 770 771 771 771 772 774 775 776 777 777 779 780 781 781 780 779 779 779 780 781 782 784 785
749 749 749 750 750 750 751 751 751 752 752 752 752 753 753 753 753 753 753 753 753 754 754 754 755 756 756 757 757 757 757 758 758 759 760 761 762 763 765 767 768 768 768 768 767 768 770 772 772 773 774 775 776 776 777 778 780 782 782 782 781 780 780 780 781 782 783 784 786
750 750 751 751 752 752 752 752 753 753 753 754 754 754 754 754 754 754 754 754 755 755 755 755 756 757 757 757 758 758 758 758 759 759 760 761 762 763 765 767 769 770 770 769 767 768 770 772 774 775 775 776 776 776 777 779 781 782 783 783 782 782 781 781 782 782 783 785 786
751 751 752 752 752 753 753 754 754 754 755 755 755 755 755 755 755 755 756 756 756 756 757 757 757 758 758 758 759 759 759 759 760 760 761 761 762 764 766 768 770 771 771 770 768 768 770 773 775 776 776 777 777 777 778 779 781 782 783 783 783 782 782 782 782 783 784 785 787
752 752 753 753 753 754 755 755 755 756 756 756 756 757 757 757 757 757 757 757 757 757 757 758 758 759 759 759 760 760 760 760 761 762 762 763 764 765 767 768 770 771 771 770 769 769 771 774 776 777 777 778 778 779 779 780 782 783 783 783 783 783 783 783 783 783 785 786 787
753 753 754 754 755 755 756 756 757 757 757 757 758 758 758 758 758 758 758 759 759 759 759 759 759 760 760 760 761 761 761 761 762 763 764 765 766 767 768 769 770 771 772 772 771 771 772 775 777 778 779 779 779 780 781 782 782 783 784 784 784 784 784 784 784 784 785 787 788
754 755 755 755 756 756 757 757 758 758 759 759 759 759 759 759 759 760 760 760 760 760 760 760 761 761 761 761 761 761 762 762 764 765 766 767 767 768 769 770 771 772 773 773 773 774 775 776 778 779 780 780 780 781 781 782 782 783 784 784 784 784 785 785 785 786 786 787 788
756 756 756 756 757 757 758 758 759 760 760 760 761 761 761 761 761 761 761 761 761 761 761 761 762 762 762 762 762 762 763 764 766 767 768 768 769 770 771 772 773 774 774 775 775 776 777 778 779 780 780 780 781 781 782 782 783 784 784 785 785 785 785 785 786 786 787 788 789
757 757 757 757 758 758 759 760 760 761 761 761 762 762 762 762 762 762 762 762 762 762 762 762 762 762 763 763 764 764 765 767 767 769 770 770 771 772 772 773 774 775 776 777 777 778 779 780 780 780 781 781 781 782 782 783 783 784 785 785 785 786 786 786 787 787 788 789 790
758 758 758 759 759 760 760 761 761 761 762 762 762 762 762 763 763 763 763 763 762 762 763 763 763 763 764 765 765 766 767 768 769 771 771 772 772 773 774 775 776 777 778 779 779 780 781 781 781 781 782 782 782 782 783 783 784 785 785 785 786 786 787 787 787 788 789 790 791
759 759 759 760 760 761 761 762 762 762 762 763 763 763 763 763 763 763 763 763 763 763 763 763 764 765 766 766 767 768 769 770 771 772 773 773 774 775 776 777 778 779 780 781 781 782 782 782 782 782 782 783 783 783 784 784 785 785 786 786 787 787 787 788 789 789 790 791 792
760 760 761 761 762 762 762 762 763 763 763 763 764 764 764 764 764 764 764 764 764 764 764 765 765 766 767 768 769 769 770 771 772 773 774 775 776 777 777 778 780 781 782 782 783 783 783 783 783 783 783 783 784 784 785 785 786 786 787 787 787 788 788 789 790 790 791 792 792
761 761 762 762 762 763 763 763 763 764 764 764 764 765 765 765 765 765 765 765 765 765 765 766 767 768 769 770 770 771 772 772 773 774 775 776 777 777 778 780 781 782 783 783 784 784 784 784 784 784 784 784 785 785 786 786 787 787 787 788 788 789 789 790 790 791 792 792 792
762 762 762 763 763 764 764 764 764 764 765 765 765 765 765 766 766 766 766 766 766 766 767 768 769 770 771 771 772 773 774 774 775 776 776 777 778 779 780 781 782 783 784 785 785 785 785 785 785 785 785 785 786 786 786 787 787 788 788 789 789 790 790 791 791 791 792 792 792
763 763 763 763 764 764 765 765 765 765 766 766 766 766 766 766 767 767 767 767 767 768 768 770 771 772 772 773 774 775 776 776 776 777 777 778 779 780 781 782 784 785 785 786 786 786 786 786 786 786 786 786 787 787 787 788 788 789 789 790 790 790 791 791 791 792 792 792 792
764 764 764 764 765 765 765 766 766 766 767 767 767 767 767 767 767 768 768 769 769 769 770 771 772 773 774 775 776 776 777 777 777 778 778 779 781 782 782 783 785 786 787 787 787 787 787 787 787 787 787 787 787 788 788 789 789 789 790 790 791 791 791 791 792 792 792 792 792
765 765 765 765 765 766 766 767 767 767 767 767 768 768 768 768 769 769 770 770 771 771 772 772 773 774 775 776 777 777 778 778 779 779 780 781 782 783 784 785 786 787 787 788 788 788 788 788 788 788 788 788 788 788 789 789 790 790 791 791 791 792 792 792 792 792 792 792 792
765 765 765 766 766 767 767 767 768 768 768 768 769 769 769 770 770 770 771 771 772 772 773 773 774 775 776 776 777 778 779 780 780 781 782 782 783 784 785 786 787 787 788 788 788 788 788 788 788 789 789 789 789 789 790 790 791 791 792 792 792 792 792 792 793 793 793 793 793